Radiation Dose at Monitoring Post of Fukushima Daini Nuclear Power Station
Date,Time,MP-1(microSv/h),MP-2(microSv/h),MP-3(microSv/h),MP-4(microSv/h),MP-5(microSv/h),MP-6(microSv/h),MP-7(microSv/h),Wind Direction,Wind Velocity(m/s),Rain
2017/07/11,00:00,0.359,0.226,0.378,0.349,0.328,0.182,0.109,west-southwest,3.7,No
2017/07/11,00:10,0.361,0.224,0.374,0.348,0.331,0.183,0.109,southwest,3.6,No
2017/07/11,00:20,0.363,0.226,0.375,0.352,0.329,0.181,0.108,southwest,3.6,No
2017/07/11,00:30,0.360,0.224,0.377,0.349,0.326,0.181,0.108,south-southwest,4.2,No
2017/07/11,00:40,0.363,0.225,0.373,0.347,0.330,0.181,0.108,south-southwest,3.3,No
2017/07/11,00:50,0.362,0.224,0.374,0.352,0.327,0.181,0.108,southwest,2.4,No
2017/07/11,01:00,0.360,0.223,0.376,0.347,0.327,0.183,0.108,southwest,1.8,No
2017/07/11,01:10,0.366,0.225,0.373,0.349,0.330,0.182,0.107,southwest,2.3,No
2017/07/11,01:20,0.360,0.224,0.376,0.350,0.327,0.182,0.109,southwest,3.0,No
2017/07/11,01:30,0.361,0.225,0.376,0.348,0.330,0.182,0.109,southwest,2.5,No
2017/07/11,01:40,0.364,0.224,0.374,0.352,0.329,0.181,0.108,southwest,3.1,No
2017/07/11,01:50,0.360,0.225,0.377,0.349,0.328,0.182,0.108,southwest,2.7,No
2017/07/11,02:00,0.365,0.225,0.375,0.349,0.330,0.182,0.108,southwest,3.1,No
2017/07/11,02:10,0.363,0.224,0.374,0.351,0.329,0.182,0.109,south-southwest,3.6,No
2017/07/11,02:20,0.359,0.225,0.376,0.347,0.330,0.181,0.108,south-southwest,4.5,No
2017/07/11,02:30,0.364,0.224,0.373,0.351,0.329,0.181,0.108,south-southwest,5.5,No
2017/07/11,02:40,0.360,0.225,0.376,0.351,0.327,0.182,0.109,south,5.1,No
2017/07/11,02:50,0.361,0.223,0.375,0.348,0.331,0.181,0.108,south,4.9,No
2017/07/11,03:00,0.364,0.224,0.376,0.353,0.327,0.181,0.109,south-southwest,4.0,No
2017/07/11,03:10,0.360,0.223,0.377,0.349,0.330,0.182,0.108,south-southwest,4.2,No
2017/07/11,03:20,0.362,0.223,0.372,0.350,0.330,0.181,0.108,south-southwest,5.0,No
2017/07/11,03:30,0.361,0.224,0.377,0.352,0.327,0.183,0.109,south-southwest,4.3,No
2017/07/11,03:40,0.359,0.224,0.375,0.349,0.332,0.182,0.109,south-southwest,3.7,No
2017/07/11,03:50,0.364,0.225,0.376,0.352,0.327,0.182,0.109,south-southwest,4.2,No
2017/07/11,04:00,0.360,0.226,0.378,0.349,0.330,0.182,0.108,south-southwest,3.8,No
2017/07/11,04:10,0.364,0.225,0.374,0.348,0.329,0.182,0.110,south-southwest,4.4,No
2017/07/11,04:20,0.363,0.225,0.378,0.351,0.327,0.183,0.109,south-southwest,4.4,No
2017/07/11,04:30,0.360,0.224,0.374,0.349,0.331,0.181,0.109,south-southwest,4.2,No
2017/07/11,04:40,0.365,0.226,0.376,0.353,0.326,0.182,0.109,south,4.2,No
2017/07/11,04:50,0.360,0.226,0.377,0.348,0.332,0.183,0.109,south,4.5,No
2017/07/11,05:00,0.364,0.227,0.376,0.350,0.330,0.181,0.109,south,4.9,No
2017/07/11,05:10,0.361,0.223,0.377,0.350,0.326,0.183,0.108,south,5.9,No
2017/07/11,05:20,0.362,0.225,0.375,0.347,0.332,0.182,0.110,south,5.9,No
2017/07/11,05:30,0.363,0.225,0.379,0.351,0.328,0.183,0.109,south,5.2,No
2017/07/11,05:40,0.361,0.226,0.375,0.348,0.328,0.182,0.109,south-southwest,3.9,No
2017/07/11,05:50,0.365,0.225,0.376,0.350,0.331,0.181,0.109,south,2.9,No
2017/07/11,06:00,0.362,0.225,0.376,0.351,0.329,0.182,0.109,south-southwest,2.9,No
2017/07/11,06:10,0.362,0.224,0.373,0.348,0.327,0.182,0.107,south-southwest,3.7,No
2017/07/11,06:20,0.363,0.224,0.378,0.353,0.326,0.182,0.109,south-southwest,3.9,No
2017/07/11,06:30,0.361,0.226,0.375,0.348,0.328,0.182,0.109,south-southwest,4.2,No
2017/07/11,06:40,0.364,0.225,0.373,0.347,0.330,0.181,0.109,south-southwest,3.6,No
2017/07/11,06:50,0.361,0.224,0.376,0.351,0.327,0.182,0.108,south-southwest,3.8,No
2017/07/11,07:00,0.360,0.223,0.374,0.349,0.326,0.181,0.108,south-southwest,4.1,No
2017/07/11,07:10,0.363,0.223,0.372,0.349,0.332,0.182,0.108,south-southwest,4.7,No
2017/07/11,07:20,0.362,0.222,0.370,0.345,0.332,0.183,0.108,south-southwest,5.1,No
2017/07/11,07:30,0.358,0.222,0.370,0.344,0.328,0.181,0.108,south-southwest,5.1,No
2017/07/11,07:40,0.361,0.223,0.372,0.343,0.327,0.182,0.107,south-southwest,3.9,No
2017/07/11,07:50,0.362,0.223,0.371,0.346,0.325,0.182,0.107,south-southwest,3.2,No
2017/07/11,08:00,0.361,0.224,0.371,0.347,0.326,0.181,0.108,south-southwest,3.7,No
2017/07/11,08:10,0.360,0.225,0.374,0.346,0.326,0.182,0.108,south,4.8,No
2017/07/11,08:20,0.358,0.224,0.373,0.346,0.326,0.180,0.110,south,5.3,No
2017/07/11,08:30,0.358,0.225,0.373,0.349,0.328,0.182,0.109,south,6.4,No
2017/07/11,08:40,0.358,0.225,0.373,0.348,0.328,0.182,0.108,south,6.5,No
2017/07/11,08:50,0.359,0.225,0.374,0.349,0.329,0.182,0.109,south,7.6,No
2017/07/11,09:00,0.360,0.225,0.374,0.352,0.329,0.182,0.109,south,7.8,No
2017/07/11,09:10,0.360,0.227,0.374,0.351,0.329,0.182,0.109,south,8.4,No
2017/07/11,09:20,0.361,0.226,0.374,0.350,0.331,0.183,0.110,south,8.3,No
2017/07/11,09:30,0.361,0.225,0.376,0.351,0.328,0.182,0.110,south,9.2,No
2017/07/11,09:40,0.363,0.224,0.374,0.348,0.329,0.182,0.110,south,10.2,No
2017/07/11,09:50,0.362,0.225,0.373,0.349,0.331,0.182,0.110,south,11.0,No
2017/07/11,10:00,0.364,0.224,0.373,0.352,0.329,0.182,0.110,south,11.5,No
2017/07/11,10:10,0.363,0.225,0.373,0.351,0.330,0.182,0.110,south,10.9,No
2017/07/11,10:20,0.364,0.223,0.376,0.351,0.329,0.181,0.111,south,10.3,No
2017/07/11,10:30,0.363,0.224,0.373,0.350,0.329,0.181,0.110,south,9.2,No
2017/07/11,10:40,0.364,0.224,0.376,0.351,0.329,0.182,0.111,south,10.5,No
2017/07/11,10:50,0.363,0.225,0.376,0.351,0.329,0.182,0.111,south,10.6,No
2017/07/11,11:00,0.361,0.226,0.376,0.351,0.329,0.183,0.110,south,12.3,No
2017/07/11,11:10,0.361,0.225,0.376,0.350,0.328,0.182,0.111,south,11.8,No
2017/07/11,11:20,0.363,0.227,0.377,0.349,0.327,0.182,0.111,south,13.0,No
2017/07/11,11:30,0.364,0.225,0.377,0.350,0.329,0.181,0.111,south,12.7,No
2017/07/11,11:40,0.363,0.224,0.377,0.349,0.329,0.182,0.110,south,13.7,No
2017/07/11,11:50,0.361,0.225,0.377,0.351,0.326,0.183,0.112,south,12.3,No
2017/07/11,12:00,0.361,0.224,0.377,0.350,0.327,0.182,0.112,south,12.7,No
2017/07/11,12:10,0.363,0.224,0.376,0.349,0.326,0.182,0.111,south,12.4,No
2017/07/11,12:20,0.362,0.224,0.377,0.349,0.328,0.181,0.112,south,13.8,No
2017/07/11,12:30,0.361,0.226,0.376,0.349,0.328,0.181,0.111,south,14.2,No
2017/07/11,12:40,0.362,0.225,0.375,0.350,0.330,0.182,0.111,south,13.6,No
2017/07/11,12:50,0.363,0.225,0.376,0.348,0.328,0.182,0.111,south,13.2,No
2017/07/11,13:00,0.362,0.224,0.377,0.349,0.328,0.180,0.111,south,13.5,No
2017/07/11,13:10,0.362,0.227,0.377,0.349,0.329,0.182,0.111,south,13.2,No
2017/07/11,13:20,0.363,0.226,0.377,0.349,0.327,0.181,0.111,south,14.6,No
2017/07/11,13:30,0.363,0.224,0.376,0.350,0.327,0.182,0.111,south,15.1,No
2017/07/11,13:40,0.362,0.226,0.375,0.350,0.329,0.182,0.110,south,14.6,No
2017/07/11,13:50,0.363,0.227,0.376,0.350,0.327,0.181,0.111,south,13.2,No
2017/07/11,14:00,0.362,0.225,0.376,0.349,0.328,0.182,0.111,south,13.2,No
2017/07/11,14:10,0.363,0.224,0.377,0.349,0.328,0.182,0.110,south,12.9,No
2017/07/11,14:20,0.363,0.225,0.376,0.350,0.328,0.182,0.111,south,13.0,No
2017/07/11,14:30,0.364,0.225,0.375,0.349,0.326,0.182,0.110,south,12.3,No
2017/07/11,14:40,0.364,0.225,0.375,0.350,0.327,0.183,0.111,south,12.6,No
2017/07/11,14:50,0.364,0.225,0.376,0.350,0.328,0.182,0.111,south,11.5,No
2017/07/11,15:00,0.363,0.224,0.375,0.348,0.329,0.182,0.110,south,11.9,No
2017/07/11,15:10,0.362,0.224,0.375,0.350,0.329,0.183,0.111,south,11.5,No
2017/07/11,15:20,0.362,0.225,0.376,0.349,0.327,0.184,0.110,south,12.1,No
2017/07/11,15:30,0.365,0.224,0.375,0.349,0.327,0.182,0.111,south,12.6,No
2017/07/11,15:40,0.361,0.225,0.374,0.348,0.327,0.183,0.107,south-southwest,12.1,No
2017/07/11,15:50,0.360,0.226,0.375,0.350,0.327,0.181,0.109,south-southwest,10.9,No
2017/07/11,16:00,0.362,0.226,0.375,0.347,0.328,0.181,0.109,south-southwest,10.1,No
2017/07/11,16:10,0.361,0.225,0.374,0.348,0.328,0.181,0.109,south-southwest,9.8,No
2017/07/11,16:20,0.361,0.225,0.375,0.349,0.327,0.181,0.108,south-southwest,9.7,No
2017/07/11,16:30,0.363,0.226,0.376,0.350,0.325,0.182,0.108,south-southwest,8.5,No
2017/07/11,16:40,0.363,0.224,0.375,0.347,0.326,0.181,0.107,south-southwest,8.3,No
2017/07/11,16:50,0.360,0.225,0.375,0.348,0.327,0.182,0.108,south-southwest,8.4,No
2017/07/11,17:00,0.362,0.224,0.373,0.348,0.329,0.182,0.107,south-southwest,7.9,No
2017/07/11,17:10,0.362,0.224,0.374,0.349,0.329,0.182,0.108,south-southwest,8.3,No
2017/07/11,17:20,0.361,0.225,0.375,0.349,0.328,0.181,0.109,south-southwest,7.8,No
2017/07/11,17:30,0.359,0.224,0.376,0.350,0.328,0.181,0.109,south-southwest,8.6,No
2017/07/11,17:40,0.361,0.224,0.373,0.354,0.327,0.183,0.108,south-southwest,8.6,No
2017/07/11,17:50,0.361,0.224,0.373,0.354,0.329,0.183,0.108,south-southwest,7.7,No
2017/07/11,18:00,0.367,0.224,0.374,0.352,0.328,0.182,0.107,south-southwest,7.0,No
2017/07/11,18:10,0.366,0.223,0.378,0.350,0.328,0.181,0.109,south-southwest,6.6,No
2017/07/11,18:20,0.363,0.226,0.380,0.350,0.327,0.183,0.109,south-southwest,7.0,No
2017/07/11,18:30,0.362,0.228,0.380,0.348,0.327,0.184,0.108,south-southwest,7.5,No
2017/07/11,18:40,0.360,0.226,0.377,0.351,0.327,0.183,0.108,south-southwest,5.9,No
2017/07/11,18:50,0.362,0.225,0.373,0.355,0.325,0.183,0.108,south-southwest,6.0,No
2017/07/11,19:00,0.365,0.225,0.373,0.352,0.326,0.182,0.109,south-southwest,5.9,No
2017/07/11,19:10,0.364,0.225,0.378,0.350,0.331,0.181,0.109,south-southwest,7.0,No
2017/07/11,19:20,0.360,0.226,0.380,0.348,0.329,0.184,0.109,south-southwest,8.0,No
2017/07/11,19:30,0.364,0.225,0.377,0.353,0.328,0.182,0.108,south-southwest,6.3,No
2017/07/11,19:40,0.366,0.224,0.374,0.353,0.325,0.181,0.109,south,6.9,No
2017/07/11,19:50,0.362,0.226,0.374,0.349,0.330,0.182,0.109,south-southwest,7.4,No
2017/07/11,20:00,0.362,0.226,0.380,0.348,0.331,0.183,0.108,south-southwest,7.5,No
2017/07/11,20:10,0.368,0.225,0.378,0.355,0.329,0.183,0.109,south-southwest,8.1,No
2017/07/11,20:20,0.365,0.226,0.375,0.352,0.327,0.182,0.109,south-southwest,7.9,No
2017/07/11,20:30,0.362,0.226,0.375,0.350,0.331,0.183,0.109,south-southwest,8.2,No
2017/07/11,20:40,0.364,0.223,0.380,0.349,0.330,0.182,0.109,south-southwest,7.7,No
2017/07/11,20:50,0.364,0.225,0.379,0.354,0.326,0.182,0.109,south-southwest,7.7,No
2017/07/11,21:00,0.361,0.226,0.374,0.352,0.328,0.183,0.108,south-southwest,6.8,No
2017/07/11,21:10,0.364,0.223,0.375,0.349,0.330,0.182,0.109,south-southwest,7.0,No
2017/07/11,21:20,0.364,0.226,0.379,0.353,0.329,0.182,0.109,south-southwest,6.4,No
2017/07/11,21:30,0.362,0.226,0.378,0.352,0.327,0.182,0.107,south-southwest,6.6,No
2017/07/11,21:40,0.365,0.224,0.375,0.349,0.330,0.183,0.109,south-southwest,7.0,No
2017/07/11,21:50,0.366,0.226,0.378,0.353,0.330,0.181,0.109,south-southwest,7.0,No
2017/07/11,22:00,0.362,0.227,0.380,0.354,0.326,0.183,0.108,south-southwest,7.8,No
2017/07/11,22:10,0.363,0.225,0.376,0.350,0.327,0.182,0.109,south-southwest,8.1,No
2017/07/11,22:20,0.367,0.226,0.376,0.349,0.331,0.181,0.109,south-southwest,8.7,No
2017/07/11,22:30,0.362,0.225,0.380,0.352,0.328,0.183,0.109,south-southwest,7.8,No
2017/07/11,22:40,0.361,0.224,0.377,0.350,0.326,0.183,0.109,south-southwest,7.3,No
2017/07/11,22:50,0.366,0.227,0.375,0.350,0.331,0.181,0.108,south-southwest,7.3,No
2017/07/11,23:00,0.362,0.226,0.377,0.353,0.330,0.183,0.109,south-southwest,8.6,No
2017/07/11,23:10,0.363,0.225,0.380,0.351,0.328,0.183,0.110,south-southwest,9.8,No
2017/07/11,23:20,0.366,0.227,0.378,0.349,0.330,0.182,0.109,south-southwest,8.5,No
2017/07/11,23:30,0.364,0.226,0.375,0.351,0.330,0.183,0.109,south-southwest,8.8,No
2017/07/11,23:40,0.362,0.226,0.381,0.355,0.327,0.183,0.109,south-southwest,8.0,No
2017/07/11,23:50,0.364,0.227,0.379,0.352,0.327,0.182,0.109,south-southwest,8.7,No
